Showing default

NETSAT-3, 46505

Orbit data source: Space-Track

NETSAT-3, 46505 is a payload satellite owned by ZfT (DE) in SSO that was launched on Mon, 28 Sep 2020 UTC via a SOYUZ-2-1B launch vehicle from the Plesetsk Missile And Space Complex (PKMTR). Payloads include a variety of satellites, spacecraft, and rockets equipped with specific instruments for various scientific and technological missions. These include communications satellites like Starlink; space stations such as the ISS; scientific satellites like the Hubble; Earth observation satellites from companies like Planet Labs, Umbra, and HawkEye 360; GPS; miniature CubeSats for education and research; and military/defense satellites.

Loading next visibility...
NETSAT-3 details
Identifier
46505, 2020-068V
Orbit
SSO
Last TLE update19 hours ago
Origin
Flag of DEZfT (DE / GER)
ManufacturerZfT
MissionOperational Commercial Technology
Bus & MotorCUBESAT 3U, Unknown motor
Mass4 kg wet, 4 kg dry
Launch date (UTC)
2020-09-28 (4 years ago)
Launch vehicle
SOYUZ-2-1B
Launch site
Plesetsk Missile And Space Complex (PKMTR)
Object type
Payload
Rocket body
Debris
Shape & HBRBox, Unknown HBR
Radar Cross Section0.035 m², Small (<0.1 m²)

Expand to show TLE details & history

TLE from 19 hours ago
0 NETSAT-3
1 46505U 20068V   24360.87604904  .00020943  00000-0  91260-3 0  9998
2 46505  97.8267 323.7207 0010498  72.5182 287.7200 15.22176638233243
Epoch: 2024-12-25T21:01Z
Definitive object data (Epoch: 2024-12-25T21:01:30.637Z)
Latitude0.00004°
Longitude-86.52047°
Altitude500.166 km
Speed7.616 km/s
True Right ascension21h 34m 52s
True Declination0° 00' 00"
Sunlit
Object was in daylight at TLE epoch
Visualization TLE readout
Latitude76.07956°
Longitude127.79213°
Altitude505.993 km
Speed7.621 km/s
Apparent Right ascension05h 03m 41s
Apparent Declination31° 12' 44"
Sunlit
Object is in full shadow
Visualization observer readout
Local Sidereal Time15:46:14
Azimuth342.787° N
Elevation-16.64°
Doppler factor1
Orbital elements
Apogee altitude503.475 km
Perigee altitude489.041 km
Semi-major axis6,874.395 km
Eccentricity0.0010498
Inclination97.8267°
RAAN323.7207°
Arg. of periapsis72.5182°
True anomaly287.60536°
Mean anomaly287.72°
Eccentric anomaly287.66269°
Mean motion3.80795 °/min
BSTAR0.0009126
Orbital period94.54 mins
Loading maneuver chart data...
Loading historical data...
Loading historical data...
Loading historical data...
Loading historical data...
Loading historical data...
Loading historical data...
Loading historical data...

NETSAT-3 Visibility forecast

Observer location: undefined°, undefined

Span
Click to sort rows by Start time (UTC) header in descending order
Start Az.
Max El. time (UTC)
Max El. Az.
Max El.
End time (UTC)
End Az.
4 mins2024-12-26 20:51:04.557Z100.718° ESE2024-12-26 20:53:04.557Z62.858° ENE15.961°2024-12-26 20:55:04.557Z28.327° NE
4 mins2024-12-26 22:25:04.557Z228.158° WSW2024-12-26 22:26:04.557Z255.277° W25.015°2024-12-26 22:29:04.557Z320.246° NNW
4 mins2024-12-27 09:54:04.557Z60.711° ENE2024-12-27 09:56:04.557Z105.281° ESE19.58°2024-12-27 09:58:04.557Z142.02° SSE
4 mins2024-12-27 11:28:04.557Z318.672° NNW2024-12-27 11:29:04.557Z295.672° NW20.422°2024-12-27 11:32:04.557Z239.335° WSW
|